Regional Weather Roundup
Issued by NWS

Home | Current Version | Previous Version | Graphics & Text | Print | Product List | Glossary Off
Versions: 1 2 3 4 5 6 7 8 9 10 11 12 13 14 15 16 17 18 19 20 21 22 23 24 25 26 27 28 29 30 31 32 33 34 35 36 37 38 39 40 41 42 43 44 45 46 47 48 49 50

000
ASUS43 KTOP 012008
RWRKS

WEATHER ROUNDUP FOR KANSAS
NATIONAL WEATHER SERVICE GOODLAND KS
300 PM CDT SUN MAY 01 2016

NOTE:  "FAIR" INDICATES FEW OR NO CLOUDS BELOW 12,000 FEET WITH NO
SIGNIFICANT WEATHER AND/OR OBSTRUCTIONS TO VISIBILITY.

KSZ001>006-013>018-027>032-041>047-012100-
NORTHWEST KANSAS

CITY           SKY/WX    TMP DP  RH WIND       PRES   REMARKS
GOODLAND       CLOUDY    50  32  50 N21G36    30.19R
HAYS           CLOUDY    48  34  57 N18       30.16S
HILL CITY      CLOUDY    50  40  68 N15G22    30.18S
RUSSELL        CLOUDY    50  40  68 N18       30.14R
$$

KSZ061>065-074>080-084>089-012100-
SOUTHWEST KANSAS

CITY           SKY/WX    TMP DP  RH WIND       PRES   REMARKS
DODGE CITY     CLOUDY    46  37  71 N15       30.19R
ELKHART          N/A     41  34  76 N14         N/A
GARDEN CITY    CLOUDY    44  37  76 N17       30.21R
GREAT BEND     CLOUDY    48  36  61 N20G29    30.14S
LIBERAL        CLOUDY    43  34  70 N15       30.23S
PRATT          CLOUDY    48  38  68 N17G23    30.15R
$$

KSZ066>073-081>083-090>101-012100-
SOUTHEAST KANSAS

CITY           SKY/WX    TMP DP  RH WIND       PRES   REMARKS
CHANUTE        CLOUDY    61  46  57 NW14      30.06R
COFFEYVILLE    PTSUNNY   64  46  52 NW13      30.05F
HUTCHINSON     CLOUDY    54  42  64 N10G21    30.12S
MEDICINE LODGE   N/A     52  40  63 N15G26    30.15R
NEWTON         CLOUDY    52  39  62 N15G22    30.11F
PARSONS        CLOUDY    61  47  59 N14       30.06F
WICHITA INTL   CLOUDY    55  42  61 N15       30.10S
WICHITA JABRA  CLOUDY    55  43  63 NW18      30.09F
WICHITA MCCONL CLOUDY    54  43  66 NW13      30.10S
WINFIELD       CLOUDY    57  46  66 NW16      30.09S
$$

KSZ007>012-019>026-033>040-048>060-102>105-012100-
NORTHEAST KANSAS

CITY           SKY/WX    TMP DP  RH WIND       PRES   REMARKS
CONCORDIA      CLOUDY    49  40  71 N12G21    30.13R
EMPORIA        PTSUNNY   60  47  61 NW14G22   30.06R
LAWRENCE       CLOUDY    58  46  64 NW13      30.04R
MANHATTAN      CLOUDY    54  44  69 N9        30.10R
MARYSVILLE     CLOUDY    46  43  87 N14       30.11R
OLATHE IND     CLOUDY    59  44  57 NW10      30.03S
OLATHE EXE     CLOUDY    59  42  53 NW8G17    30.02S
SALINA         CLOUDY    52  43  71 N20G29    30.13R
TOPEKA BILLARD CLOUDY    57  48  72 N10G21    30.05R
TOPEKA FORBES  LGT RAIN  57  47  69 NW16      30.05R
$$




USA.gov is the U.S. government's official web portal to all federal, state and local government web resources and services.